User: anonymous   Login
Location: �clusier
(49.9361°N, 2.7869°E)
Time: 22:22:02
(UTC+00:00)
Language:

NANOSAT 1B - Orbit

View from above orbital plane
View from above orbital plane
View from above satellite
View from above satellite

Ground track
Ground track

The orbit data is extracted from the following two-line orbital elements,

1 35685U 09041E   22028.39981738  .00000339  00000-0  46133-4 0  9999
2 35685  98.1860  87.9788 0058347 357.3957   2.6944 14.84559823676333
Epoch (UTC): 28 January 2022 09:35:44
Eccentricity: 0.0058347
inclination: 98.1860°
perigee height: 574 km
apogee height: 656 km
right ascension of ascending node: 87.9788°
argument of perigee: 357.3957°
revolutions per day: 14.84559823
mean anomaly at epoch: 2.6944°
orbit number at epoch: 67633

The dashed part of the orbit path shows where the satellite is in the earth's shadow,  

DLR